Location: Waning Moon II Observatory
(30.3730°N, 89.7620°W)
Time: 02:14:43
(UTC-05:00)

Daily predictions for brighter satellites

Satellite Brightness Start Highest point End
(mag) Time Altitude Azimuth Time Altitude Azimuth Time Altitude Azimuth
NOSS 3-1 (A) 4.3 00:04:38 10° NNW 00:12:02 64° NE 00:12:02 64° NE
Cosmos 2360 Rocket 3.8 00:30:35 10° N 00:33:33 31° N 00:33:33 31° N
Cosmos 2322 Rocket 4.3 00:44:35 10° NW 00:46:33 20° NW 00:46:33 20° NW
CZ-2C R/B 4.4 00:54:24 10° N 00:57:21 28° NNW 00:57:21 28° NNW
Cosmos 2297 Rocket 4.4 01:16:08 18° ENE 01:16:08 18° ENE 01:17:53 10° NE
Cosmos 2219 Rocket 3.9 01:12:52 10° N 01:16:23 27° NE 01:16:23 27° NE
Cosmos 2333 Rocket 4.1 01:14:22 10° N 01:18:03 24° NE 01:18:03 24° NE
Cosmos 2237 Rocket 3.9 01:35:58 10° N 01:40:03 26° NE 01:40:03 26° NE
Cosmos 2227 Rocket 3.5 01:53:35 37° NNE 01:53:35 37° NNE 01:56:53 10° NNE
ATLAS 2AS CENTAUR R/B 3.0 01:55:24 10° NNW 02:02:31 72° N 02:02:31 72° N
CZ-3B DEB 4.0 02:13:03 63° SSW 02:16:04 85° SE 02:30:45 10° NE
ATLAS 3B CENTAUR R/B 4.2 01:52:35 10° W 02:19:28 82° S 02:28:16 10° E
SL-08 R/B 4.3 02:47:32 48° NNE 02:47:32 48° NNE 02:51:26 10° N
Cosmos 2297 Rocket 3.5 02:57:56 29° NW 02:57:56 29° NW 03:01:57 10° N
ARIANE 5 R/B 3.3 02:53:57 10° NNE 02:58:24 43° E 02:58:24 43° E
Cosmos 2219 Rocket 4.3 02:56:55 10° NW 02:58:04 15° NW 02:58:04 15° NW
ADEOS 4.2 02:57:25 10° NNE 03:02:22 48° E 03:02:22 48° E
Cosmos 2333 Rocket 4.0 02:58:11 10° NW 03:00:01 19° NW 03:00:01 19° NW
SL-16 R/B 3.2 03:00:45 32° SE 03:03:18 49° ENE 03:09:14 10° N
BREEZE-M R/B 4.2 03:05:10 68° SW 03:06:19 87° SE 03:11:23 10° NE
NPP 4.3 03:04:32 10° N 03:08:53 46° NW 03:08:53 46° NW
Lacrosse 4 Rocket 3.1 03:12:59 28° N 03:12:59 28° N 03:15:19 10° N
ATLAS 5 CENTAUR R/B 3.0 03:13:11 31° ESE 03:13:11 31° ESE 03:17:02 10° NE
BREEZE-M DEB (TANK) 4.3 02:54:38 10° NW 03:13:41 87° NE 03:17:03 23° SE
Resurs 1-4 Rocket 2.1 03:09:44 10° NNE 03:15:03 75° ESE 03:15:03 75° ESE
Cosmos 1707 Rocket 4.3 03:11:33 10° N 03:14:58 51° NNE 03:14:58 51° NNE
Cosmos 2034 Rocket 3.9 03:11:57 10° N 03:18:20 88° E 03:19:26 64° S
Cosmos 1486 Rocket 4.2 03:21:04 62° ESE 03:21:16 62° ESE 03:26:25 10° NNE
USA 234 3.1 03:24:14 61° SW 03:24:18 61° SW 03:30:47 10° NW
Cosmos 1666 Rocket 4.3 03:25:38 46° NNW 03:25:38 46° NNW 03:28:54 10° N
Cosmos 2237 Rocket 3.8 03:19:41 10° NW 03:21:49 21° WNW 03:21:49 21° WNW
ADEOS Rocket 3.5 03:18:38 10° N 03:26:18 74° WNW 03:28:27 51° SW
SL-16 R/B 2.0 03:22:25 10° NNW 03:28:07 83° WSW 03:28:35 75° S
CBERS 1 LM4 rocket 4.5 03:25:34 10° N 03:30:55 71° WNW 03:31:01 70° W
Cosmos 2227 4.1 03:31:19 71° WSW 03:31:50 78° WNW 03:37:36 10° NNE
Tsikada Rocket 4.0 03:32:38 60° SW 03:33:34 68° W 03:39:57 10° N
Cosmos 2242 Rocket 4.5 03:29:21 10° N 03:33:42 47° E 03:34:56 37° SE
Cosmos 1933 Rocket 4.2 03:33:52 47° ESE 03:34:23 50° E 03:38:41 10° NNE
Cosmos 468 Rocket 4.1 03:30:12 10° N 03:35:22 71° ENE 03:37:02 42° SE
Cosmos 2227 Rocket 4.5 03:35:24 10° WNW 03:35:55 10° NW 03:36:30 10° NW
UNKNOWN OBJECT B 3.4 03:33:22 10° NNE 03:37:03 52° E 03:37:03 52° E
OAO 3 Rocket 3.2 03:41:16 67° WNW 03:41:47 75° NNW 03:46:45 10° ENE
Spot 4 Rocket 4.3 03:37:16 10° N 03:42:13 50° WNW 03:42:18 50° WNW
Abrixas rocket 3.8 03:44:24 32° ENE 03:44:24 32° ENE 03:46:26 10° ENE
CZ-2D R/B 2.2 03:38:28 10° N 03:43:35 57° WNW 03:43:59 55° W
Meteosat 1 Rocket2 3.3 03:44:58 61° SSE 03:44:58 61° SSE 03:48:43 10° E
UNK 3.7 03:45:07 66° WNW 03:45:07 66° WNW 03:49:26 10° NNW
Cosmos 2263 Rocket 2.9 03:48:35 29° SSE 03:51:01 46° ESE 03:56:18 10° NNE
Cosmos 1763 Rocket 4.2 03:47:30 10° N 03:52:34 52° ENE 03:57:32 10° SSE
MOS 1 Rocket 3.7 03:48:03 10° NNE 03:53:22 74° E 03:55:31 38° S
CZ-2D R/B 3.4 03:50:44 10° NNE 03:54:51 78° E 03:55:26 64° SSE
NOSS 3-4 (A) 3.8 03:47:53 10° NNW 03:55:08 89° WSW 04:02:49 10° SSE
NOSS 3-4 (C) 3.8 03:47:59 10° NNW 03:55:14 90° WSW 04:02:55 10° SSE
Atlas Centaur 2 3.9 03:52:57 27° S 03:55:38 33° SSE 04:03:01 10° E
IRS-1D 4.1 03:52:02 10° N 03:56:57 40° WNW 03:57:33 39° W
Cosmos 1892 4.0 03:57:25 25° SE 03:58:55 35° E 04:02:25 10° NNE
Cosmos 1503 Rocket 4.1 03:58:55 39° S 04:00:55 75° ESE 04:06:10 10° NNE
Cosmos 1814 Rocket 4.0 03:56:59 10° NNW 04:02:21 89° W 04:06:30 17° SSE
MOZ.5/SAFIR/RUBIN 5/SL-8 4.0 04:00:01 21° SSE 04:03:13 72° ENE 04:07:59 10° N
In-Cosmos 22 Rocket 4.0 04:03:49 38° S 04:05:58 87° W 04:11:18 10° N
Cosmos 1633 Rocket 4.5 04:07:22 23° WNW 04:07:22 23° WNW 04:10:17 10° NNW
Cosmos 1470 Rocket 3.7 04:09:00 48° W 04:09:19 49° W 04:13:30 10° N
SEDSat Delta rocket 4.0 04:13:37 35° SW 04:16:15 64° SSE 04:22:52 10° E
Cosmos 2285 Rocket 4.4 04:12:31 10° N 04:18:47 64° ENE 04:25:02 10° SSE
Okean O Rocket 3.1 04:14:55 10° NNE 04:18:51 33° E 04:22:47 10° SSE
SL-24 R/B 3.5 04:15:42 10° N 04:19:23 85° W 04:20:27 44° SSW
GP-B 3.6 04:16:57 10° NNE 04:21:20 59° E 04:25:17 12° S
Cosmos 1634 Rocket 3.9 04:15:48 10° N 04:21:56 73° W 04:27:25 13° S
Cosmos 1933 3.4 04:22:20 10° NNW 04:26:22 59° W 04:28:05 31° SSW
Cosmos 1354 Rocket 4.1 04:25:14 31° SW 04:27:39 58° WNW 04:32:51 10° N
Cosmos 1400 Rocket 3.2 04:28:38 36° WSW 04:29:25 41° W 04:33:11 10° N
CZ-3A R/B 4.1 04:29:17 10° NNW 04:33:25 42° ENE 04:46:45 10° SE
Cosmos 371 Rocket 3.5 04:30:39 10° NNW 04:35:15 48° WSW 04:39:11 14° S
Cosmos 2084 3.4 04:35:01 25° SSW 04:37:16 69° ESE 04:41:09 10° NE
ARIANE 5 R/B 4.2 04:34:24 10° NNW 04:37:27 16° WNW 04:38:45 15° W
PSLV R/B 4.3 04:35:01 10° NNE 04:39:05 49° E 04:43:08 10° S
VEP-3 3.7 04:38:55 20° WSW 04:41:46 26° SSW 04:46:22 10° SSE
Meteor 1-26 Rocket 4.1 04:37:53 10° N 04:43:34 78° W 04:49:06 10° S
SL-16 R/B 3.7 04:45:50 18° WSW 04:47:05 19° W 04:51:23 10° NW
USA 161 3.1 04:48:38 13° NW 04:48:38 13° NW 04:48:58 10° NW
Cosmos 1603 4.0 04:45:55 10° NW 04:51:16 44° WSW 04:56:35 10° S
Cosmos 968 Rocket 3.7 04:48:09 10° S 04:53:14 69° ESE 04:58:24 10° NNE
Resurs 1-4 Rocket 4.2 04:53:09 10° NW 04:54:11 11° WNW 04:55:13 10° WNW
ADEOS II 2.1 04:52:12 10° N 04:57:27 75° WNW 05:02:40 10° SSW
ATLAS 5 CENTAUR R/B 3.3 04:54:45 14° W 04:57:27 22° NW 05:01:15 10° N
Cosmos 304 Rocket 3.8 04:58:44 10° NNW 05:03:33 89° W 05:08:20 10° SSE
ATLAS 3B CENTAUR R/B 3.0 04:53:28 10° W 05:04:26 43° SSW 05:08:49 10° SE
Cosmos 841 Rocket 4.1 05:02:01 10° NW 05:06:44 34° W 05:11:25 10° SSW
RESURS DK-1 2.4 05:03:41 10° NNW 05:07:51 84° ENE 05:11:59 10° SSE
CZ-3A R/B 4.3 05:03:52 11° WSW 05:10:21 65° S 06:23:21 10° ESE
Cosmos 2221 Rocket 3.6 05:07:00 10° N 05:11:31 77° W 05:16:00 10° S
Cosmos 1733 Rocket 4.3 05:07:51 10° SSE 05:12:03 43° E 05:16:16 10° NNE
Meteor PRIRODA 4.2 05:08:58 10° NNE 05:12:34 59° E 05:16:11 10° S
IRS-1C Rocket 4.1 05:07:24 10° N 05:12:40 72° WNW 05:17:53 10° SSW
CZ-4B R/B 3.2 05:10:06 10° N 05:15:25 69° WNW 05:20:48 10° SSW
CZ-4B R/B 3.9 05:19:40 10° N 05:23:28 32° WNW 05:27:04 10° SW
OAO 3 Rocket 4.1 05:20:52 10° WNW 05:25:41 48° N 05:30:28 10° ENE
BREEZE M DEB (TANK) 4.1 05:25:00 10° SSE 05:25:45 11° SE 05:26:28 10° ESE
Centaur D-1AR AC-40 3.9 05:11:24 10° WSW 05:28:26 38° S 05:32:58 10° ESE
Cosmos 2263 Rocket 3.8 05:31:18 10° WSW 05:35:07 19° WNW 05:38:56 10° NNW
Cosmos 1943 3.7 05:31:09 10° NW 05:36:16 37° WSW 05:41:24 10° S
CZ-2C R/B 3.8 05:32:10 10° S 05:36:48 77° WSW 05:41:32 10° NNW
CZ-3 R/B 3.1 05:35:15 10° W 06:02:09 56° SSW 06:08:43 10° SE
